Terminal Aerodrome Forecast
Issued by NWS

Home | Current Version | Previous Version | Text Only | Print | Product List | Glossary On
Versions: 1 2 3 4 5 6 7 8 9 10 11 12 13 14 15 16 17 18 19 20
173
FTUS44 KLZK 310222 AAA
TAFLIT
TAF AMD
KLIT 310222Z 3102/3124 11006KT P6SM -RA SCT025 BKN050 OVC250
     FM310400 08005KT P6SM VCSH FEW010 BKN040 BKN250
     FM310800 VRB03KT 5SM BR FEW010 SCT050 BKN250
      TEMPO 3109/3113 2SM BR FEW005 BKN020
     FM311500 12005KT P6SM BKN040 BKN250
     FM311800 14007KT P6SM VCSH BKN050 BKN250=

USA.gov is the U.S. government's official web portal to all federal, state and local government web resources and services.